FW0472 Weather Reports


Display with metric or nautical units.
time (UTC)temp
F
wind
direction
speed
MPH
gust
MPH
rain 1hr
in
rain 24hr
in
rain mn
in
humidity
%
barometer
mb
20260902234731 64 86 1.0 1.0 0.00 0.00 0.00 90 1044.6
20260902234230 64 79 1.0 2.0 0.00 0.00 0.00 92 1044.8
20260902233730 64 46 0.0 0.0 0.00 0.00 0.00 91 1044.6
20260902233224 64 39 0.0 0.0 0.00 0.00 0.00 91 1044.5
20260902232722 64 84 0.0 1.0 0.00 0.00 0.00 91 1044.7
20260902232217 64 81 0.0 0.0 0.00 0.00 0.00 91 1044.7
20260902231711 64 83 0.0 1.0 0.00 0.00 0.00 92 1044.9
20260902231206 64 25 1.0 2.0 0.00 0.00 0.00 91 1045.0
20260902230702 64 87 0.0 1.0 0.00 0.00 0.00 91 1045.2
20260902230200 64 92 0.0 1.0 0.00 0.00 0.00 91 1045.6
20260902225655 65 90 0.0 0.0 0.00 0.00 0.00 91 1046.0
20260902225155 65 77 0.0 0.0 0.00 0.00 0.00 90 1046.4
20260902224653 65 30 0.0 0.0 0.00 0.00 0.00 90 1046.2
20260902224149 65 66 0.0 0.0 0.00 0.00 0.00 90 1046.3
20260902223645 65 50 0.0 0.0 0.00 0.00 0.00 90 1046.5
20260902223144 65 54 0.0 0.0 0.00 0.00 0.00 91 1046.5
20260902222643 65 61 0.0 0.0 0.00 0.00 0.00 90 1046.6
20260902222142 65 71 0.0 0.0 0.00 0.00 0.00 90 1046.5
20260902221637 65 84 0.0 0.0 0.00 0.00 0.00 90 1046.6
20260902221132 65 73 0.0 0.0 0.00 0.00 0.00 90 1046.6
20260902220628 65 77 0.0 1.0 0.00 0.00 0.00 90 1046.6
20260902220127 65 3 0.0 0.0 0.00 0.00 0.00 90 1046.8
20260902215623 66 47 0.0 0.0 0.00 0.00 0.00 89 1046.7
20260902215118 65 75 0.0 0.0 0.00 0.00 0.00 89 1046.6
20260902214614 66 61 0.0 0.0 0.00 0.00 0.00 90 1046.6
20260902214112 66 76 0.0 0.0 0.00 0.00 0.00 89 1046.4
20260902213609 66 90 0.0 1.0 0.00 0.00 0.00 89 1046.5
20260902213107 66 28 0.0 0.0 0.00 0.00 0.00 88 1046.5
20260902212603 66 46 0.0 0.0 0.00 0.00 0.00 89 1046.6
20260902212059 66 55 0.0 0.0 0.00 0.00 0.00 88 1046.4
20260902211555 66 46 0.0 0.0 0.00 0.00 0.00 88 1046.4
20260902211050 66 29 0.0 0.0 0.00 0.00 0.00 89 1046.4
20260902210549 66 16 0.0 0.0 0.00 0.00 0.00 88 1046.5
20260902210044 66 86 0.0 0.0 0.00 0.00 0.00 89 1046.6
20260902205543 66 327 0.0 0.0 0.00 0.00 0.00 89 1046.8
20260902205039 66 14 0.0 0.0 0.00 0.00 0.00 87 1046.9
20260902204539 66 355 0.0 0.0 0.00 0.00 0.00 88 1047.0
20260902204034 66 2 0.0 0.0 0.00 0.00 0.00 88 1047.1
20260902203529 66 16 0.0 0.0 0.00 0.00 0.00 87 1047.0
20260902203028 66 317 0.0 0.0 0.00 0.00 0.00 85 1047.2
20260902202524 67 24 0.0 0.0 0.00 0.00 0.00 86 1046.8
20260902202021 66 352 0.0 0.0 0.00 0.00 0.00 88 1046.8
20260902201516 66 355 0.0 0.0 0.00 0.00 0.00 87 1046.9
20260902201015 66 54 0.0 0.0 0.00 0.00 0.00 88 1047.0
20260902200511 66 26 0.0 0.0 0.00 0.00 0.00 86 1046.9
20260902200007 67 57 0.0 1.0 0.00 0.00 0.00 86 1046.8
20260902195503 67 71 1.0 1.0 0.00 0.00 0.00 86 1046.8
20260902195001 66 74 0.0 0.0 0.00 0.00 0.00 87 1046.9
20260902194500 66 67 0.0 0.0 0.00 0.00 0.00 87 1047.0
20260902193956 66 91 0.0 1.0 0.00 0.00 0.00 88 1047.1
20260902193451 66 99 1.0 1.0 0.00 0.00 0.00 87 1046.9
20260902192950 66 90 1.0 1.0 0.00 0.00 0.00 87 1046.9
20260902192444 66 46 0.0 0.0 0.00 0.00 0.00 88 1046.9
20260902191943 66 18 0.0 0.0 0.00 0.00 0.00 86 1047.3
20260902191438 67 325 0.0 0.0 0.00 0.00 0.00 84 1047.3
20260902190933 67 341 0.0 1.0 0.00 0.00 0.00 86 1047.2
20260902190429 67 61 0.0 0.0 0.00 0.00 0.00 86 1047.0
20260902185924 66 31 0.0 0.0 0.00 0.00 0.00 87 1047.1
20260902185421 66 348 0.0 1.0 0.00 0.00 0.00 87 1047.3
20260902184915 66 52 0.0 0.0 0.00 0.00 0.00 89 1047.4
20260902184410 65 63 0.0 0.0 0.00 0.00 0.00 89 1047.6
20260902183906 65 25 0.0 0.0 0.00 0.00 0.00 89 1047.7
20260902183402 65 71 0.0 0.0 0.00 0.00 0.00 88 1047.5
20260902182858 65 50 0.0 0.0 0.00 0.00 0.00 88 1047.8
20260902182354 65 59 0.0 0.0 0.00 0.00 0.00 89 1047.9
20260902181850 65 357 0.0 0.0 0.00 0.00 0.00 89 1048.0
20260902181345 65 33 0.0 0.0 0.00 0.00 0.00 88 1048.0
20260902180839 65 34 0.0 0.0 0.00 0.00 0.00 89 1047.7
20260902180335 65 53 1.0 1.0 0.00 0.00 0.00 88 1047.8
20260902175830 65 53 0.0 0.0 0.00 0.00 0.00 88 1047.7
20260902175325 65 71 1.0 2.0 0.00 0.00 0.00 88 1047.4
20260902174821 65 86 0.0 0.0 0.00 0.00 0.00 88 1047.5
20260902174318 65 67 1.0 1.0 0.00 0.00 0.00 88 1047.4
20260902173813 65 61 0.0 0.0 0.00 0.00 0.00 88 1047.4
20260902173313 65 74 0.0 0.0 0.00 0.00 0.00 88 1047.4
20260902172813 65 79 0.0 0.0 0.00 0.00 0.00 87 1047.7
20260902172308 65 82 0.0 0.0 0.00 0.00 0.00 89 1047.5
20260902171802 65 80 0.0 0.0 0.00 0.00 0.00 88 1047.8
20260902171257 65 262 0.0 0.0 0.00 0.00 0.00 87 1047.7
20260902170754 65 17 0.0 0.0 0.00 0.00 0.00 87 1047.9
20260902170249 65 62 0.0 0.0 0.00 0.00 0.00 87 1048.0
20260902165744 65 33 0.0 0.0 0.00 0.00 0.00 89 1047.9
20260902165244 65 39 0.0 0.0 0.00 0.00 0.00 87 1047.9
20260902164738 65 88 0.0 0.0 0.00 0.00 0.00 87 1048.3
20260902164233 65 69 0.0 0.0 0.00 0.00 0.00 87 1048.2
20260902163728 65 85 1.0 1.0 0.00 0.00 0.00 86 1048.1
20260902163227 66 94 1.0 2.0 0.00 0.00 0.00 88 1047.9
20260902162726 66 104 2.0 2.0 0.00 0.00 0.00 86 1048.0
20260902162221 65 5 0.0 0.0 0.00 0.00 0.00 86 1047.7
20260902161716 65 46 0.0 1.0 0.00 0.00 0.00 87 1047.7
20260902161211 65 85 0.0 0.0 0.00 0.00 0.00 87 1047.9
20260902160709 65 39 0.0 0.0 0.00 0.00 0.00 88 1047.9
20260902160202 65 83 0.0 1.0 0.00 0.00 0.00 88 1048.2
20260902155701 64 26 0.0 0.0 0.00 0.00 0.00 89 1048.1
20260902155159 65 58 0.0 0.0 0.00 0.00 0.00 87 1048.2
20260902154654 65 88 0.0 1.0 0.00 0.00 0.00 87 1048.2
20260902154148 65 75 0.0 0.0 0.00 0.00 0.00 89 1048.2
20260902153643 65 47 0.0 0.0 0.00 0.00 0.00 88 1048.4
20260902153138 65 279 0.0 0.0 0.00 0.00 0.00 84 1048.6
20260902152634 65 94 0.0 1.0 0.00 0.00 0.00 84 1048.7
20260902152129 65 99 0.0 1.0 0.00 0.00 0.00 87 1048.8
20260902151625 65 38 0.0 1.0 0.00 0.00 0.00 88 1048.8
20260902151119 65 19 0.0 0.0 0.00 0.00 0.00 88 1048.7
20260902150614 65 31 0.0 0.0 0.00 0.00 0.00 82 1048.7
20260902150109 66 33 0.0 0.0 0.00 0.00 0.00 87 1049.0
20260902145604 66 221 0.0 1.0 0.00 0.00 0.00 81 1048.8
20260902145103 65 307 0.0 0.0 0.00 0.00 0.00 83 1048.8
20260902144600 65 10 0.0 0.0 0.00 0.00 0.00 83 1048.4
20260902144055 65 289 0.0 0.0 0.00 0.00 0.00 82 1048.6
20260902143550 65 337 0.0 0.0 0.00 0.00 0.00 83 1048.6
20260902143046 65 333 0.0 0.0 0.00 0.00 0.00 85 1048.6
20260902142543 64 287 0.0 0.0 0.00 0.00 0.00 85 1048.6
20260902142036 65 39 0.0 0.0 0.00 0.00 0.00 85 1048.5
20260902141536 64 202 0.0 0.0 0.00 0.00 0.00 86 1048.4
20260902141031 64 164 0.0 1.0 0.00 0.00 0.00 88 1048.4
20260902140526 64 231 0.0 1.0 0.00 0.00 0.00 86 1048.5
20260902140022 64 299 0.0 0.0 0.00 0.00 0.00 89 1048.3
20260902135520 64 321 0.0 0.0 0.00 0.00 0.00 89 1048.4
20260902135016 63 329 0.0 0.0 0.00 0.00 0.00 89 1048.3
20260902134511 63 17 0.0 0.0 0.00 0.00 0.00 91 1048.2
20260902134006 63 285 0.0 0.0 0.00 0.00 0.00 92 1048.3
20260902133501 63 310 0.0 0.0 0.00 0.00 0.00 94 1048.1
20260902132955 62 337 0.0 0.0 0.00 0.00 0.00 95 1047.9
20260902132451 62 358 0.0 0.0 0.00 0.00 0.00 94 1047.7
20260902131945 62 353 0.0 0.0 0.00 0.00 0.00 95 1048.0
20260902131442 62 13 0.0 0.0 0.00 0.00 0.00 96 1047.7
20260902130941 62 345 0.0 0.0 0.00 0.00 0.00 96 1047.9
20260902130437 62 352 0.0 0.0 0.00 0.00 0.00 96 1047.7
20260902125932 62 35 0.0 0.0 0.00 0.00 0.00 95 1048.0
20260902125428 62 30 0.0 0.0 0.00 0.00 0.00 96 1048.1
20260902124924 62 4 0.0 0.0 0.00 0.00 0.00 95 1048.1
20260902124420 62 30 0.0 0.0 0.00 0.00 0.00 95 1048.0
20260902123914 62 10 0.0 0.0 0.00 0.00 0.00 95 1048.1
20260902123411 62 16 0.0 0.0 0.00 0.00 0.00 95 1048.2
20260902122909 62 2 0.0 0.0 0.00 0.00 0.00 95 1048.2
20260902122405 61 347 0.0 0.0 0.00 0.00 0.00 96 1048.3
20260902121900 61 3 0.0 0.0 0.00 0.00 0.00 96 1048.0
20260902121354 61 19 1.0 1.0 0.00 0.00 0.00 96 1048.1
20260902120844 62 8 0.0 0.0 0.00 0.00 0.00 96 1048.0
20260902120341 61 322 0.0 0.0 0.00 0.00 0.00 94 1048.1
20260902115840 61 325 0.0 0.0 0.00 0.00 0.00 95 1048.3
20260902115337 61 315 0.0 0.0 0.00 0.00 0.00 94 1048.1
20260902114833 61 319 0.0 0.0 0.00 0.00 0.00 95 1048.2
20260902114329 60 322 0.0 0.0 0.00 0.00 0.00 97 1048.1
20260902113828 61 3 0.0 0.0 0.00 0.00 0.00 98 1047.9
20260902113323 61 6 0.0 0.0 0.00 0.00 0.00 97 1048.3
20260902112817 61 357 0.0 0.0 0.00 0.00 0.00 97 1048.3
20260902112314 61 358 0.0 0.0 0.00 0.00 0.00 97 1048.5
20260902111809 61 348 0.0 0.0 0.00 0.00 0.00 96 1048.5
20260902111306 61 313 0.0 0.0 0.00 0.00 0.00 96 1048.4
20260902110801 61 326 0.0 0.0 0.00 0.00 0.00 97 1048.4
20260902110257 60 340 0.0 0.0 0.00 0.00 0.00 97 1048.5
20260902105756 60 350 0.0 0.0 0.00 0.00 0.00 97 1048.1
20260902105251 61 6 0.0 0.0 0.00 0.00 0.00 98 1048.0
20260902104747 60 349 0.0 0.0 0.00 0.00 0.00 98 1048.0
20260902104243 60 339 0.0 0.0 0.00 0.00 0.00 98 1048.1
20260902103742 60 341 0.0 0.0 0.00 0.00 0.00 98 1048.0
20260902103237 60 324 0.0 0.0 0.00 0.00 0.00 98 1047.9
20260902102732 60 342 0.0 0.0 0.00 0.00 0.00 98 1047.8
20260902102230 60 353 0.0 0.0 0.00 0.00 0.00 99 1047.9
20260902101726 60 345 0.0 0.0 0.00 0.00 0.00 99 1047.7
20260902101220 60 344 0.0 0.0 0.00 0.00 0.00 99 1047.7
20260902100719 60 358 0.0 0.0 0.00 0.00 0.00 99 1047.8
20260902100214 60 12 0.0 0.0 0.00 0.00 0.00 99 1047.7
20260902095714 61 356 0.0 0.0 0.00 0.00 0.00 99 1047.6
20260902095208 61 0 0.0 0.0 0.00 0.00 0.00 99 1047.8
20260902094703 61 357 0.0 0.0 0.00 0.00 0.00 99 1047.7
20260902094200 61 4 0.0 0.0 0.00 0.00 0.00 99 1047.8
20260902093658 61 14 0.0 0.0 0.00 0.00 0.00 99 1047.8
20260902093154 61 8 0.0 0.0 0.00 0.00 0.00 99 1047.9
20260902092648 61 338 0.0 0.0 0.00 0.00 0.00 99 1048.1
20260902092143 61 352 0.0 0.0 0.00 0.00 0.00 99 1047.6
20260902091638 60 2 0.0 0.0 0.00 0.00 0.00 99 1047.6
20260902091134 60 5 0.0 0.0 0.00 0.00 0.00 99 1047.5
20260902090630 61 14 0.0 0.0 0.00 0.00 0.00 99 1047.4
20260902090129 61 11 1.0 1.0 0.00 0.00 0.00 99 1047.5
20260902085624 60 14 0.0 0.0 0.00 0.00 0.00 99 1047.4
20260902085119 61 0 0.0 0.0 0.00 0.00 0.00 99 1047.5
20260902084615 61 358 0.0 0.0 0.00 0.00 0.00 99 1047.4
20260902084111 61 359 0.0 0.0 0.00 0.00 0.00 99 1047.5
20260902083606 61 351 0.0 0.0 0.00 0.00 0.00 99 1047.5
20260902083105 61 10 0.0 0.0 0.00 0.00 0.00 99 1047.5
20260902082601 61 27 0.0 0.0 0.00 0.00 0.00 99 1047.6
20260902082057 61 348 0.0 0.0 0.00 0.00 0.00 99 1047.6
20260902081554 61 355 0.0 0.0 0.00 0.00 0.00 99 1047.6
20260902081053 61 346 0.0 0.0 0.00 0.00 0.00 99 1047.5
20260902080548 61 343 0.0 0.0 0.00 0.00 0.00 99 1047.5
20260902080045 61 344 0.0 0.0 0.00 0.00 0.00 99 1047.5
20260902075544 61 348 0.0 0.0 0.00 0.00 0.00 99 1047.5
20260902075040 61 355 0.0 0.0 0.00 0.00 0.00 99 1047.8
20260902074536 61 353 0.0 0.0 0.00 0.00 0.00 99 1047.6
20260902074031 61 345 0.0 0.0 0.00 0.00 0.00 99 1047.9
20260902073526 61 352 0.0 0.0 0.00 0.00 0.00 99 1047.9
20260902073023 62 352 0.0 0.0 0.00 0.00 0.00 99 1047.7
20260902072518 62 347 0.0 0.0 0.00 0.00 0.00 99 1047.7
20260902072015 62 345 0.0 0.0 0.00 0.00 0.00 99 1047.7
20260902071514 62 351 0.0 1.0 0.00 0.00 0.00 99 1047.7
20260902071011 62 332 0.0 1.0 0.00 0.00 0.00 99 1047.7
20260902070506 62 323 0.0 0.0 0.00 0.00 0.00 99 1048.0
20260902070007 62 324 0.0 0.0 0.00 0.00 0.00 99 1047.8
20260902065500 62 324 0.0 0.0 0.00 0.00 0.00 99 1048.0
20260902064955 62 324 0.0 0.0 0.00 0.00 0.00 99 1047.9
20260902064450 62 324 0.0 0.0 0.00 0.00 0.00 99 1047.8
20260902063946 62 338 0.0 0.0 0.00 0.00 0.00 99 1047.7
20260902063440 62 328 0.0 0.0 0.00 0.00 0.00 99 1047.6
20260902062936 62 328 0.0 0.0 0.00 0.00 0.00 99 1047.5
20260902062434 62 319 0.0 0.0 0.00 0.00 0.00 99 1047.6
20260902061929 62 327 0.0 0.0 0.00 0.00 0.00 99 1047.4
20260902061424 62 329 0.0 0.0 0.00 0.00 0.00 99 1047.5
20260902060920 62 332 0.0 0.0 0.00 0.00 0.00 99 1047.5
20260902060416 62 331 0.0 0.0 0.00 0.00 0.00 99 1047.5
20260902055912 62 332 0.0 0.0 0.00 0.00 0.00 99 1047.2
20260902055408 62 332 0.0 0.0 0.00 0.00 0.00 99 1047.3
20260902054903 62 332 0.0 0.0 0.00 0.00 0.00 99 1047.2
20260902054358 62 332 0.0 0.0 0.00 0.00 0.00 99 1047.1
20260902053854 62 332 0.0 0.0 0.00 0.00 0.00 99 1047.4
20260902053349 62 326 0.0 0.0 0.00 0.00 0.00 99 1047.2
20260902052847 62 325 0.0 0.0 0.00 0.00 0.00 99 1047.1
20260902052343 62 340 0.0 0.0 0.00 0.00 0.00 99 1047.3
20260902051838 62 340 0.0 0.0 0.00 0.00 0.00 99 1047.1
20260902051337 62 340 0.0 0.0 0.00 0.00 0.00 99 1047.0
20260902050832 62 340 0.0 0.0 0.00 0.00 0.00 99 1046.9
20260902050331 62 341 0.0 0.0 0.00 0.00 0.00 99 1047.1
20260902045826 62 341 0.0 0.0 0.00 0.00 0.00 99 1047.0
20260902045322 62 341 0.0 0.0 0.00 0.00 0.00 99 1046.9
20260902044819 62 341 0.0 0.0 0.00 0.00 0.00 99 1046.9
20260902044314 62 341 0.0 0.0 0.00 0.00 0.00 99 1046.8
20260902043814 62 342 0.0 0.0 0.00 0.00 0.00 99 1046.8
20260902043309 62 342 0.0 0.0 0.00 0.00 0.00 99 1046.6
20260902042809 62 323 0.0 0.0 0.00 0.00 0.00 99 1046.6
20260902042308 62 323 0.0 0.0 0.00 0.00 0.00 99 1046.7
20260902041759 62 323 0.0 0.0 0.00 0.00 0.00 99 1046.3
20260902041258 62 324 0.0 0.0 0.00 0.00 0.00 99 1046.4
20260902040757 62 327 0.0 0.0 0.00 0.00 0.00 99 1046.4
20260902040254 62 352 0.0 0.0 0.00 0.00 0.00 99 1046.4
20260902035752 62 352 0.0 0.0 0.00 0.22 0.22 99 1046.4
20260902035248 62 352 0.0 0.0 0.00 0.22 0.22 99 1046.2
20260902034746 62 352 0.0 0.0 0.00 0.22 0.22 99 1046.2
20260902034242 62 352 0.0 0.0 0.00 0.22 0.22 99 1046.3
20260902033739 62 352 0.0 0.0 0.00 0.22 0.22 99 1046.2
20260902033235 62 343 0.0 0.0 0.00 0.22 0.22 99 1046.4
20260902032733 62 326 0.0 0.0 0.00 0.22 0.22 99 1046.3
20260902032229 62 313 0.0 1.0 0.00 0.22 0.22 99 1046.2
20260902031723 62 341 0.0 0.0 0.00 0.22 0.22 99 1046.3
20260902031218 63 342 0.0 0.0 0.00 0.22 0.22 99 1046.3
20260902030714 63 341 0.0 0.0 0.00 0.22 0.22 99 1046.3
20260902030214 63 341 0.0 0.0 0.00 0.22 0.22 99 1046.4
20260902025713 63 350 0.0 0.0 0.00 0.22 0.22 99 1046.3
20260902025208 63 349 1.0 1.0 0.00 0.22 0.22 99 1046.3
20260902024703 63 337 0.0 0.0 0.00 0.22 0.22 99 1046.0
20260902024158 63 328 0.0 0.0 0.00 0.22 0.22 99 1046.2
20260902023654 63 333 0.0 0.0 0.00 0.22 0.22 99 1046.2
20260902023149 63 329 0.0 0.0 0.07 0.22 0.22 99 1045.8
20260902022648 63 338 0.0 0.0 0.07 0.22 0.22 99 1045.8
20260902022144 63 335 0.0 0.0 0.07 0.22 0.22 99 1045.9
20260902021640 63 325 0.0 0.0 0.00 0.21 0.21 99 1045.9
20260902021134 63 323 0.0 0.0 0.00 0.21 0.21 99 1045.9
20260902020631 63 323 0.0 0.0 0.00 0.21 0.21 99 1045.8
20260902020126 63 342 0.0 0.0 0.00 0.21 0.21 99 1045.9
20260902015622 63 342 0.0 0.0 0.00 0.21 0.21 99 1045.8
20260902015118 63 343 0.0 0.0 0.00 0.21 0.21 99 1046.0
20260902014613 63 343 0.0 0.0 0.00 0.21 0.21 99 1046.1
20260902014109 63 342 0.0 0.0 0.00 0.21 0.21 99 1046.1
20260902013608 63 343 0.0 0.0 0.00 0.21 0.21 99 1045.9
20260902013104 63 344 0.0 0.0 0.00 0.21 0.21 99 1045.8
20260902012559 63 343 0.0 0.0 0.00 0.21 0.21 99 1045.8
20260902012054 63 328 0.0 0.0 0.00 0.21 0.21 99 1046.0
20260902011550 63 333 0.0 0.0 0.00 0.21 0.21 99 1045.8
20260902011049 63 321 0.0 0.0 0.05 0.21 0.21 99 1046.3
20260902010549 63 341 0.0 0.0 0.05 0.21 0.21 98 1046.2
20260902010045 63 348 0.0 0.0 0.05 0.21 0.21 98 1045.9
20260902005542 64 350 0.0 0.0 0.00 0.20 0.20 98 1045.8
20260902005039 64 350 0.0 0.0 0.00 0.20 0.20 97 1045.8
20260902004538 64 345 0.0 0.0 0.00 0.20 0.20 97 1046.0
20260902004033 64 354 0.0 0.0 0.00 0.20 0.20 96 1045.8
20260902003529 64 359 0.0 0.0 0.00 0.20 0.20 95 1046.0
20260902003024 64 321 0.0 0.0 0.00 0.20 0.20 95 1046.0
20260902002520 65 319 0.0 0.0 0.00 0.20 0.20 94 1045.9
20260902002015 65 321 0.0 0.0 0.00 0.20 0.20 94 1045.7
20260902001509 64 321 0.0 0.0 0.00 0.20 0.20 93 1045.7
20260902001004 64 321 0.0 0.0 0.00 0.20 0.20 94 1045.5
20260902000459 64 345 0.0 0.0 0.00 0.20 0.20 94 1045.3
20260901235954 64 345 0.0 0.0 0.00 0.20 0.20 94 1045.5
20260901235448 64 346 0.0 0.0 0.00 0.20 0.20 94 1045.3